RYR1235 LEST-LEMD

Flight info

Callsign RYR1235
Flight time 0h 51m
Altitude 29000
Route FORNO DCT DESAT/N0445F300 N733 ZMR
Aircraft B738/M-SDE2E3FGHIRWXY/LB1

Departure

Time 2026-05-08 16:09
Airport Santiago-Rosalía de Castro Airport (LEST)

Arrival

Time 2026-05-08 17:00
Airport Adolfo Suárez Madrid–Barajas Airport (LEMD)
Time Latitude Longitude Altitude Speed Heading
2026-05-08 15:49 42.89650 -8.41863 1201 ft 0 kts 256°
2026-05-08 16:02 42.89650 -8.41867 1201 ft 0 kts 256°
2026-05-08 16:02 42.89648 -8.41873 1201 ft 0 kts 256°
2026-05-08 16:02 42.89648 -8.41875 1201 ft 0 kts 266°
2026-05-08 16:03 42.89655 -8.41878 1201 ft 1 kts 17°
2026-05-08 16:03 42.89667 -8.41862 1201 ft 2 kts 47°
2026-05-08 16:03 42.89679 -8.41845 1202 ft 2 kts 47°
2026-05-08 16:03 42.89693 -8.41824 1202 ft 3 kts 42°
2026-05-08 16:04 42.89727 -8.41789 1202 ft 7 kts 24°
2026-05-08 16:04 42.89795 -8.41798 1200 ft 12 kts 351°
2026-05-08 16:04 42.89898 -8.41823 1198 ft 17 kts 349°
2026-05-08 16:04 42.90029 -8.41877 1193 ft 22 kts 345°
2026-05-08 16:05 42.90197 -8.41931 1186 ft 27 kts 346°
2026-05-08 16:05 42.90404 -8.42010 1176 ft 33 kts 343°
2026-05-08 16:05 42.90651 -8.42086 1160 ft 39 kts 344°
2026-05-08 16:05 42.90931 -8.42183 1147 ft 42 kts 348°
2026-05-08 16:06 42.91134 -8.42172 1141 ft 23 kts 69°
2026-05-08 16:06 42.91135 -8.42016 1153 ft 10 kts 100°
2026-05-08 16:06 42.91134 -8.42007 1154 ft 4 kts 104°
2026-05-08 16:06 42.91151 -8.42053 1150 ft 0 kts 183°
2026-05-08 16:07 42.91139 -8.42043 1151 ft 0 kts 146°
2026-05-08 16:07 42.91138 -8.42042 1151 ft 0 kts 146°
2026-05-08 16:07 42.91110 -8.42019 1154 ft 13 kts 154°
2026-05-08 16:07 42.91040 -8.41986 1159 ft 9 kts 167°
2026-05-08 16:08 42.90720 -8.41881 1175 ft 101 kts 165°
2026-05-08 16:08 42.89756 -8.41556 1396 ft 165 kts 168°
2026-05-08 16:08 42.88617 -8.41083 1736 ft 170 kts 162°
2026-05-08 16:08 42.87393 -8.40581 1790 ft 205 kts 167°
2026-05-08 16:09 42.85953 -8.40174 2881 ft 220 kts 169°
2026-05-08 16:09 42.84488 -8.39758 4033 ft 221 kts 169°
2026-05-08 16:09 42.83047 -8.38982 4893 ft 237 kts 147°
2026-05-08 16:09 42.82048 -8.37183 5918 ft 247 kts 115°
2026-05-08 16:10 42.81722 -8.34887 7020 ft 257 kts 95°
2026-05-08 16:10 42.81821 -8.32448 8103 ft 268 kts 87°
2026-05-08 16:10 42.82060 -8.29883 9017 ft 283 kts 86°
2026-05-08 16:10 42.82326 -8.27215 10082 ft 291 kts 86°
2026-05-08 16:11 42.82496 -8.24441 11033 ft 300 kts 94°
2026-05-08 16:11 42.82108 -8.21729 12085 ft 299 kts 116°
2026-05-08 16:11 42.81094 -8.19271 13160 ft 301 kts 124°
2026-05-08 16:11 42.80057 -8.16771 14182 ft 307 kts 122°
2026-05-08 16:12 42.79013 -8.14257 15142 ft 314 kts 123°
2026-05-08 16:12 42.77873 -8.11711 16139 ft 318 kts 126°
2026-05-08 16:12 42.76677 -8.09197 17083 ft 323 kts 127°
2026-05-08 16:12 42.75422 -8.06634 17990 ft 330 kts 127°
2026-05-08 16:13 42.74143 -8.04043 18936 ft 334 kts 127°
2026-05-08 16:13 42.72845 -8.01409 19835 ft 339 kts 127°
2026-05-08 16:13 42.71543 -7.98757 20729 ft 343 kts 127°
2026-05-08 16:13 42.70207 -7.96031 21577 ft 348 kts 127°
2026-05-08 16:14 42.68873 -7.93306 22356 ft 354 kts 127°
2026-05-08 16:14 42.67500 -7.90499 23167 ft 358 kts 127°
2026-05-08 16:14 42.66132 -7.87704 23936 ft 363 kts 127°
2026-05-08 16:14 42.64733 -7.84844 24678 ft 368 kts 127°
2026-05-08 16:15 42.63310 -7.81937 25453 ft 371 kts 127°
2026-05-08 16:15 42.61871 -7.78997 26147 ft 375 kts 127°
2026-05-08 16:15 42.60424 -7.76040 26853 ft 378 kts 128°
2026-05-08 16:15 42.58978 -7.73084 27494 ft 383 kts 128°
2026-05-08 16:16 42.57503 -7.70069 28153 ft 386 kts 128°
2026-05-08 16:16 42.55996 -7.66988 28712 ft 391 kts 128°
2026-05-08 16:16 42.54464 -7.63858 28828 ft 395 kts 128°
2026-05-08 16:16 42.52968 -7.60794 28838 ft 392 kts 128°
2026-05-08 16:17 42.49948 -7.54599 28839 ft 392 kts 128°
2026-05-08 16:17 42.46964 -7.48476 28838 ft 393 kts 128°
2026-05-08 16:18 42.43923 -7.42298 28846 ft 395 kts 129°
2026-05-08 16:18 42.40877 -7.36168 28846 ft 394 kts 129°
2026-05-08 16:19 42.37815 -7.30014 28837 ft 395 kts 130°
2026-05-08 16:19 42.34744 -7.23843 28840 ft 394 kts 130°
2026-05-08 16:20 42.31684 -7.17704 28834 ft 394 kts 130°
2026-05-08 16:20 42.28617 -7.11561 28837 ft 395 kts 130°
2026-05-08 16:21 42.25567 -7.05466 28841 ft 394 kts 130°
2026-05-08 16:21 42.22473 -6.99298 28848 ft 397 kts 130°
2026-05-08 16:22 42.19400 -6.93182 28847 ft 397 kts 130°
2026-05-08 16:22 42.16280 -6.86984 28848 ft 399 kts 130°
2026-05-08 16:23 42.13167 -6.80812 28845 ft 399 kts 130°
2026-05-08 16:23 42.10044 -6.74634 28845 ft 400 kts 130°
2026-05-08 16:24 42.06898 -6.68425 28852 ft 401 kts 130°
2026-05-08 16:24 42.03753 -6.62228 28852 ft 401 kts 131°
2026-05-08 16:25 42.00606 -6.56039 28857 ft 402 kts 131°
2026-05-08 16:25 41.97446 -6.49837 28856 ft 403 kts 130°
2026-05-08 16:26 41.94280 -6.43640 28859 ft 402 kts 130°
2026-05-08 16:26 41.91111 -6.37447 28859 ft 404 kts 130°
2026-05-08 16:27 41.87934 -6.31252 28856 ft 403 kts 131°
2026-05-08 16:27 41.84749 -6.25054 28859 ft 404 kts 131°
2026-05-08 16:28 41.81575 -6.18887 28860 ft 405 kts 131°
2026-05-08 16:28 41.78395 -6.12726 28864 ft 404 kts 131°
2026-05-08 16:29 41.75211 -6.06571 28858 ft 403 kts 131°
2026-05-08 16:29 41.71997 -6.00374 28861 ft 404 kts 131°
2026-05-08 16:30 41.68817 -5.94251 28863 ft 405 kts 131°
2026-05-08 16:30 41.65604 -5.88077 28864 ft 403 kts 131°
2026-05-08 16:31 41.62402 -5.81932 28865 ft 403 kts 131°
2026-05-08 16:31 41.59196 -5.75795 28865 ft 404 kts 131°
2026-05-08 16:32 41.55973 -5.69638 28866 ft 404 kts 131°
2026-05-08 16:32 41.52627 -5.63660 28864 ft 398 kts 137°
2026-05-08 16:33 41.48747 -5.58485 28867 ft 394 kts 144°
2026-05-08 16:33 41.44677 -5.53607 28869 ft 393 kts 145°
2026-05-08 16:34 41.40642 -5.48777 28872 ft 392 kts 145°
2026-05-08 16:34 41.36568 -5.43861 28873 ft 394 kts 145°
2026-05-08 16:35 41.32531 -5.38967 28874 ft 394 kts 144°
2026-05-08 16:35 41.28493 -5.34064 28876 ft 392 kts 145°
2026-05-08 16:36 41.24468 -5.29182 28880 ft 393 kts 145°
2026-05-08 16:36 41.20450 -5.24315 28881 ft 392 kts 145°
2026-05-08 16:37 41.16386 -5.19406 28885 ft 392 kts 145°
2026-05-08 16:37 41.12350 -5.14536 28885 ft 393 kts 146°
2026-05-08 16:38 41.08298 -5.09652 28884 ft 392 kts 146°
2026-05-08 16:38 41.04254 -5.04790 28884 ft 394 kts 146°
2026-05-08 16:39 41.00210 -4.99937 28884 ft 394 kts 146°
2026-05-08 16:39 40.96119 -4.95036 28885 ft 398 kts 146°
2026-05-08 16:40 40.94025 -4.92548 28886 ft 415 kts 146°
2026-05-08 16:40 40.91849 -4.89966 28850 ft 424 kts 145°
2026-05-08 16:40 40.89658 -4.87352 28491 ft 419 kts 145°
2026-05-08 16:40 40.87512 -4.84777 27909 ft 414 kts 145°
2026-05-08 16:41 40.85383 -4.82224 27222 ft 412 kts 145°
2026-05-08 16:41 40.83262 -4.79688 26544 ft 409 kts 145°
2026-05-08 16:41 40.81189 -4.77211 26034 ft 403 kts 145°
2026-05-08 16:42 40.77039 -4.72267 24906 ft 401 kts 145°
2026-05-08 16:42 40.74962 -4.69807 24333 ft 402 kts 144°
2026-05-08 16:42 40.72903 -4.67366 23765 ft 397 kts 144°
2026-05-08 16:42 40.70871 -4.64954 23196 ft 392 kts 144°
2026-05-08 16:43 40.68881 -4.62592 22643 ft 387 kts 144°
2026-05-08 16:43 40.66886 -4.60229 22088 ft 382 kts 144°
2026-05-08 16:43 40.64911 -4.57893 21532 ft 378 kts 144°
2026-05-08 16:43 40.62986 -4.55614 21032 ft 374 kts 144°
2026-05-08 16:44 40.61122 -4.53251 20914 ft 379 kts 141°
2026-05-08 16:44 40.59284 -4.50694 20905 ft 384 kts 139°
2026-05-08 16:44 40.57496 -4.48093 20905 ft 386 kts 138°
2026-05-08 16:44 40.55722 -4.45481 20734 ft 380 kts 138°
2026-05-08 16:45 40.53970 -4.42901 20175 ft 377 kts 138°
2026-05-08 16:45 40.52219 -4.40343 19570 ft 374 kts 138°
2026-05-08 16:45 40.50489 -4.37833 19011 ft 370 kts 138°
2026-05-08 16:45 40.48767 -4.35345 18458 ft 366 kts 138°
2026-05-08 16:46 40.47071 -4.32903 17926 ft 362 kts 139°
2026-05-08 16:46 40.45392 -4.30492 17397 ft 357 kts 139°
2026-05-08 16:46 40.43734 -4.28118 16872 ft 354 kts 139°
2026-05-08 16:46 40.42046 -4.25710 16338 ft 359 kts 138°
2026-05-08 16:47 40.40362 -4.23312 15801 ft 355 kts 138°
2026-05-08 16:47 40.38707 -4.20952 15265 ft 351 kts 138°
2026-05-08 16:47 40.37083 -4.18633 14750 ft 347 kts 138°
2026-05-08 16:47 40.35504 -4.16235 14236 ft 345 kts 133°
2026-05-08 16:48 40.34207 -4.13631 13918 ft 346 kts 122°
2026-05-08 16:48 40.33241 -4.10726 13915 ft 353 kts 115°
2026-05-08 16:48 40.32431 -4.07676 13917 ft 355 kts 112°
2026-05-08 16:48 40.31685 -4.04581 13936 ft 355 kts 111°
2026-05-08 16:49 40.30952 -4.01488 13908 ft 354 kts 111°
2026-05-08 16:49 40.30220 -3.98445 13839 ft 353 kts 111°
2026-05-08 16:49 40.29476 -3.95408 13410 ft 347 kts 111°
2026-05-08 16:49 40.28736 -3.92432 12861 ft 345 kts 112°
2026-05-08 16:50 40.27983 -3.89434 12324 ft 342 kts 112°
2026-05-08 16:50 40.27247 -3.86518 11814 ft 338 kts 111°
2026-05-08 16:50 40.26516 -3.83628 11315 ft 334 kts 112°
2026-05-08 16:50 40.25794 -3.80772 10816 ft 330 kts 111°
2026-05-08 16:51 40.25261 -3.77879 10565 ft 322 kts 97°
2026-05-08 16:51 40.25432 -3.75018 10406 ft 313 kts 82°
2026-05-08 16:51 40.25916 -3.72317 10308 ft 297 kts 78°
2026-05-08 16:51 40.26428 -3.69797 10168 ft 281 kts 78°
2026-05-08 16:52 40.26894 -3.67378 10032 ft 266 kts 79°
2026-05-08 16:52 40.27242 -3.65090 9926 ft 250 kts 86°
2026-05-08 16:52 40.27290 -3.62868 9813 ft 234 kts 98°
2026-05-08 16:52 40.27121 -3.60810 9717 ft 221 kts 101°
2026-05-08 16:53 40.26771 -3.57011 9539 ft 200 kts 101°
2026-05-08 16:53 40.26621 -3.55242 9417 ft 193 kts 101°
2026-05-08 16:53 40.26474 -3.53515 9268 ft 186 kts 101°
2026-05-08 16:54 40.26357 -3.51868 9072 ft 181 kts 93°
2026-05-08 16:54 40.26664 -3.50265 8864 ft 179 kts 72°
2026-05-08 16:54 40.27337 -3.48952 8695 ft 173 kts 41°
2026-05-08 16:54 40.28293 -3.48079 8548 ft 166 kts 36°
2026-05-08 16:55 40.29230 -3.47166 8288 ft 167 kts 39°
2026-05-08 16:55 40.30130 -3.46223 8059 ft 165 kts 40°
2026-05-08 16:55 40.31025 -3.45286 7833 ft 164 kts 40°
2026-05-08 16:55 40.31918 -3.44356 7594 ft 164 kts 40°
2026-05-08 16:56 40.32806 -3.43428 7335 ft 166 kts 40°
2026-05-08 16:56 40.33720 -3.42472 7018 ft 171 kts 39°
2026-05-08 16:56 40.34775 -3.41730 6689 ft 175 kts 11°
2026-05-08 16:56 40.35925 -3.41973 6357 ft 177 kts 334°
2026-05-08 16:57 40.37008 -3.42801 5901 ft 180 kts 309°
2026-05-08 16:57 40.37660 -3.44161 5484 ft 176 kts 297°
2026-05-08 16:57 40.38546 -3.45281 5035 ft 181 kts 322°
2026-05-08 16:57 40.39598 -3.46181 4566 ft 183 kts 323°
2026-05-08 16:58 40.40655 -3.47114 4089 ft 185 kts 327°
2026-05-08 16:58 40.41792 -3.47899 3627 ft 180 kts 329°
2026-05-08 16:58 40.42799 -3.48746 3283 ft 168 kts 321°
2026-05-08 16:58 40.43693 -3.49669 2877 ft 159 kts 317°
2026-05-08 16:59 40.44510 -3.50581 2519 ft 152 kts 315°
2026-05-08 16:59 40.45236 -3.51476 2341 ft 139 kts 316°
2026-05-08 16:59 40.46002 -3.52267 2167 ft 137 kts 322°
2026-05-08 16:59 40.46756 -3.53017 2025 ft 134 kts 320°
2026-05-08 17:00 40.47488 -3.53764 1909 ft 131 kts 321°
2026-05-08 17:00 40.48152 -3.54425 1887 ft 95 kts 322°
2026-05-08 17:00 40.48499 -3.54758 1893 ft 34 kts 324°
2026-05-08 17:00 40.48628 -3.54885 1895 ft 11 kts 320°
2026-05-08 17:01 40.48709 -3.54986 1897 ft 17 kts 309°
2026-05-08 17:01 40.48770 -3.55120 1899 ft 16 kts 299°
2026-05-08 17:01 40.48817 -3.55247 1902 ft 14 kts 285°
2026-05-08 17:01 40.48849 -3.55364 1905 ft 12 kts 289°
2026-05-08 17:02 40.48885 -3.55451 1908 ft 9 kts 312°
2026-05-08 17:02 40.48941 -3.55512 1910 ft 10 kts 321°
2026-05-08 17:02 40.49001 -3.55574 1913 ft 11 kts 322°
2026-05-08 17:02 40.49066 -3.55639 1915 ft 12 kts 322°
2026-05-08 17:03 40.49134 -3.55707 1918 ft 12 kts 322°
2026-05-08 17:03 40.49206 -3.55778 1921 ft 13 kts 323°
2026-05-08 17:03 40.49279 -3.55857 1924 ft 13 kts 308°
2026-05-08 17:03 40.49300 -3.55969 1928 ft 12 kts 271°
2026-05-08 17:04 40.49303 -3.56078 1931 ft 12 kts 271°
2026-05-08 17:04 40.49302 -3.56189 1935 ft 11 kts 256°
2026-05-08 17:04 40.49255 -3.56246 1939 ft 9 kts 184°
2026-05-08 17:04 40.49193 -3.56251 1941 ft 8 kts 184°
2026-05-08 17:05 40.49131 -3.56257 1943 ft 9 kts 184°
2026-05-08 17:05 40.49064 -3.56255 1944 ft 10 kts 176°
2026-05-08 17:05 40.48987 -3.56262 1946 ft 11 kts 185°
2026-05-08 17:05 40.48902 -3.56272 1948 ft 12 kts 185°
2026-05-08 17:06 40.48812 -3.56266 1950 ft 13 kts 183°
2026-05-08 17:06 40.48772 -3.56358 1955 ft 11 kts 262°
2026-05-08 17:06 40.48770 -3.56446 1960 ft 8 kts 265°
2026-05-08 17:06 40.48768 -3.56506 1963 ft 5 kts 268°
2026-05-08 17:07 40.48767 -3.56549 1965 ft 4 kts 268°
2026-05-08 17:07 40.48766 -3.56586 1966 ft 3 kts 268°
2026-05-08 17:07 40.48767 -3.56638 1968 ft 10 kts 274°
2026-05-08 17:07 40.48772 -3.56763 1973 ft 16 kts 272°
2026-05-08 17:08 40.48775 -3.56901 1978 ft 13 kts 270°
2026-05-08 17:08 40.48767 -3.57006 1983 ft 9 kts 262°
2026-05-08 17:08 40.48766 -3.57079 1985 ft 6 kts 275°
2026-05-08 17:08 40.48769 -3.57124 1987 ft 3 kts 275°
2026-05-08 17:09 40.48770 -3.57151 1988 ft 3 kts 274°
2026-05-08 17:09 40.48772 -3.57177 1989 ft 2 kts 274°
2026-05-08 17:09 40.48774 -3.57201 1989 ft 2 kts 274°
2026-05-08 17:09 40.48776 -3.57256 1990 ft 17 kts 272°
2026-05-08 17:10 40.48678 -3.57452 1998 ft 49 kts 177°
2026-05-08 17:10 40.48091 -3.57313 2001 ft 95 kts 159°
2026-05-08 17:10 40.47492 -3.56953 1992 ft 95 kts 167°
2026-05-08 17:10 40.47155 -3.56907 1995 ft 21 kts 237°
2026-05-08 17:11 40.47100 -3.56974 1998 ft 0 kts 210°
2026-05-08 17:11 40.47096 -3.56977 1999 ft 0 kts 211°